Location: Bannatyne
(13.0833°N, 59.5333°W)
Time: 00:43:30
(UTC+00:00)

Transit 4A - Pass Details

Date: 25 January 2021
Orbit: 866 x 978 km, 66.8° (Epoch: 03 March)

Event Time Altitude Azimuth Distance (km) Brightness Sun altitude
Exits shadow 08:06:05 22° 29° (NNE) 1,870 9.6 -33.3°
Maximum altitude 08:08:29 28° 66° (ENE) 1,593 9.5 -32.8°
Drops below altitude 10° 08:13:26 10° 124° (SE) 2,526 10.9 -31.6°
Sets 08:16:13 0° 136° (SE) 3,453 11.7 -30.9°
